Regional Weather Roundup
Issued by NWS

Home | Current Version | Previous Version | Graphics & Text | Print | Product List | Glossary On
Versions: 1 2 3 4 5 6 7 8 9 10 11 12 13 14 15 16 17 18 19 20 21 22 23 24 25 26 27 28 29 30 31 32 33 34 35 36 37 38 39 40 41 42 43 44 45 46 47 48 49 50
000
ASUS43 KBIS 192202
RWRND

NORTH DAKOTA REGIONAL WEATHER ROUNDUP
NATIONAL WEATHER SERVICE BISMARCK ND
500 PM CDT THU OCT 19 2017

NOTE: "FAIR" INDICATES FEW OR NO CLOUDS BELOW 12,000 FEET WITH NO
SIGNIFICANT WEATHER AND/OR OBSTRUCTIONS TO VISIBILITY.


NDZ001>003-009>011-017-192300-
NORTHWEST NORTH DAKOTA

CITY           SKY/WX    TMP DP  RH WIND       PRES   REMARKS
WILLISTON      SUNNY     79  34  19 S7        29.64F
MINOT          SUNNY     79  32  18 S10       29.65F
MINOT AFB      SUNNY     78  32  19 SW9       29.63F
$$

NDZ018>021-031>035-040>046-192300-
SOUTHWEST NORTH DAKOTA

CITY           SKY/WX    TMP DP  RH WIND       PRES   REMARKS
BISMARCK       SUNNY     77  38  24 SE14      29.72R
DICKINSON      SUNNY     80  28  15 S8        29.70F
GARRISON         N/A     78  34  20 SW8       29.69S
HETTINGER ARPT SUNNY     80  27  14 SW5       29.74F
$$

NDZ004>008-012>016-024-026-027-054-192300-
NORTHEAST NORTH DAKOTA

CITY           SKY/WX    TMP DP  RH WIND       PRES   REMARKS
GRAND FORKS    MOSUNNY   73  40  30 S16G25    29.72F
GRND FRKS AFB  SUNNY     71  38  30 S14       29.72F
DEVILS LAKE    SUNNY     74  39  28 S13       29.70F
$$

NDZ022-023-025-028>030-036>039-047>053-192300-
SOUTHEAST NORTH DAKOTA

CITY           SKY/WX    TMP DP  RH WIND       PRES   REMARKS
FARGO          SUNNY     73  41  31 S17       29.76F
JAMESTOWN      SUNNY     72  40  31 S12       29.74S
$$





USA.gov is the U.S. government's official web portal to all federal, state and local government web resources and services.